Location: Unspecified
(0.0000°N, 0.0000°E)
Time: 00:47:52
(UTC+00:00)

Hubble Space Telescope - Pass Details

Date: 20 February 2019
Orbit: 536 x 540 km, 28.5° (Epoch: 15 July)

Event Time Altitude Azimuth Distance (km) Brightness Sun altitude
Rises 18:54:24 0° 317° (NW) 2,670 4.8 -10.0°
Reaches altitude 10° 18:56:53 10° 329° (NNW) 1,781 3.7 -10.6°
Maximum altitude 19:00:28 28° 30° (NNE) 1,012 1.8 -11.5°
Enters shadow 19:02:40 18° 76° (ENE) 1,354 2.1 -12.0°
